sat.trackr.live / text

‹ back to catalog

STARLINK-31121

NORAD 58685 · 2023-211U

PAYLOAD ACTIVE UNKNOWN

§ Identity

Operator
Country
US
Launch date
2023-12-29
Launch site
AFETR
Launch vehicle
Mass (kg)
RCS (m²)

Purposes: comms

External: N2YO · Heavens-Above · Gunter

§ Orbital elements

Epoch: 2026-09-19T22:02:32.105760Z

Period
94.27 min
Inclination
43.0070°
Eccentricity
0.0002389
Mean motion
15.27579430 rev/d
Perigee alt
481.4 km
Apogee alt
484.7 km
Semi-major
6,861.2 km
B*
6.1877e-6
RAAN
68.0055°
Arg perigee
271.1548°
Mean anomaly
88.9030°
Rev number
15,217

§ Raw data

STARLINK-311211 58685U 23211U   26262.91842715 -.00000092  00000+0  61877-5 0  99912 58685  43.0070  68.0055 0002389 271.1548  88.9030 15.27579430152179

JSON: /api/v1/satellites/58685 · /tle

For live sub-satellite position, see the globe view (requires WebGL).

§ Visibility from observer

Set your observer location to see the next 7 days of passes ≥ 10°. The values pass through the URL so the page stays shareable.

No JS? Fill the form by hand. The geolocation button needs JavaScript.